Regional Weather Roundup
Issued by NWS Newport/Morehead, NC

Current Version | Previous Version | Graphics & Text | Print | Product List | Glossary Off
Versions: 1 2 3 4 5 6 7 8 9 10 11 12 13 14 15 16 17 18 19 20 21 22 23 24 25 26 27 28 29 30 31 32 33 34 35 36 37 38 39 40 41 42 43 44 45 46 47 48 49 50

000
ASUS42 KMHX 230522
RWRMHX
WEATHER ROUNDUP FOR EASTERN NORTH CAROLINA
NATIONAL WEATHER SERVICE NEWPORT/MOREHEAD CITY NC
100 AM EDT WED JUL 23 2014

NOTE: "FAIR" INDICATES FEW OR NO CLOUDS BELOW 12,000 FEET
WITH NO SIGNIFICANT WEATHER AND/OR OBSTRUCTIONS TO VISIBILITY

NCZ015>017-031-032-045>047-102-103-230600-
NORTH COAST

CITY           SKY/WX    TMP DP  RH WIND       PRES   REMARKS
EDENTON        MOCLDY    76  74  96 SW5       30.08F
ELIZABETH CITY PTCLDY    73  73 100 CALM      30.08F
KITTY HAWK     HVY RAIN  76  74  96 SW7G16    30.08S
MANTEO         NOT AVBL

$$

NCZ045>047-081-094-103-104-230600-
CENTRAL COAST

CITY           SKY/WX    TMP DP  RH WIND       PRES   REMARKS
FRISCO         CLOUDY    78  74  87 SW9       30.09F
SWANQUARTER      N/A     79 N/A N/A SW9       30.06S

$$

NCZ095-097-098-100-101-230600-
SOUTHERN COAST

CITY           SKY/WX    TMP DP  RH WIND       PRES   REMARKS
BEAUFORT       MOCLDY    79  74  84 SW9       30.09S
CEDAR ISLAND     N/A     77 N/A N/A SW5       30.12S
JACKSONVILLE   PTCLDY    75  74  96 SW3       30.08F
NEWPORT        NOT AVBL
PINEY ISLAND   PTCLDY    76  75  97 SW5       30.09S
WILMINGTON     CLEAR     75  73  93 CALM      30.09F


$$

NCZ011>013-027>030-043-044-078>080-089-090>093-098-230600-
COASTAL PLAIN

CITY           SKY/WX    TMP DP  RH WIND       PRES   REMARKS
AHOSKIE        CLOUDY    72  70  96 CALM      30.09F VSB 1
CLINTON        MOCLDY    76  76  99 CALM      30.09F
ELIZABETHTOWN  PTCLDY    75  75  99 CALM      30.09F
GOLDSBORO      MOCLDY    75  75 100 CALM      30.07F
GREENVILLE     MOCLDY    75  73  94 CALM      30.10F
HAVELOCK       PTCLDY    74  72  93 SW3       30.10S
KENANSVILLE    MOCLDY    74  73  94 CALM      30.10F
KINSTON        MOCLDY    75  74  97 CALM      30.09F
NEW BERN       PTCLDY    76  73  91 SW3       30.10S
RICHLANDS      PTCLDY    73  72  94 SW5       30.08F
ROANOKE RAPIDS NOT AVBL
ROCKY MOUNT    MOCLDY    73  72  96 CALM      30.09F
WASHINGTON     CLOUDY    75  74  96 SW3       30.09F
WHITEVILLE     PTCLDY    74  73  95 CALM      30.09F

$$

AMZ130-135-150-152-154-156-158-170-250-252-270-ANZ085-086-088-633-658-670-230600-
MARINE OBSERVATIONS

STATION/POSITION TIME  TEMP    WIND        PRES    WAVE   SWELL
                       AIR SEA DIR/SP/G            HT/PER HT/PER
                 (UTC) (F)     (DEG/KT/KT) (MB)    (FT/S) (FT/S)
CHESAPEAKE LIGHT NOT AVBL
BUOY 44014       0500   77 78  210/  8/  8 1018.6    3/ 8   2/ 8
DUCK             0500   78 74  190/  8/ 12 1017.9
2E DUCK          0500                        N/A     2/ 5
OREGON INLET     0500   78 80  220/ 12/ 15 1018.7
BUOY 44095       0500      78                N/A     3/ 8
20E OREGON INLET NOT AVBL
HATTERAS CG      0500   78 82  210/  7/ 10 1019.3
DIAMOND BUOY     0500          VRB 16/ 17  1018.7    4/ 7   2/ 8
CAPE LOOKOUT     0500   78     240/  7/ 10 1018.8
BEAUFORT LAB     0500   79 80  230/  5/  9 1018.5
30 SE NEW RIVER  0500   80 80  230/ 14/ 16 1019.3    4/ 5   2/ 6
5 SE WRIGHTSVILL 0500   76 81  230/ 12/ 14   N/A
BUOY 41002       0441   82 82  190/ 16/ 17 1020.6    4/ 6   2/ 8
BUOY 41004       0500   81 82  170/  8/ 10 1018.1    3/ 7   2/ 7

$$



USA.gov is the U.S. government's official web portal to all federal, state and local government web resources and services.